Weather History for K2W6 - May, 2013

Change the Weather History Date:

Tuesday, May 14, 2013

  Actual Average (KNHK) Record (KNHK)
Temperature  
Mean Temperature 48 °F -  
Max Temperature 64 °F 72 °F 86 °F (1985)
Min Temperature 33 °F 56 °F 37 °F (2005)
Degree Days  
Heating Degree Days 16    
Moisture  
Dew Point 32 °F    
Average Humidity 55    
Maximum Humidity 93    
Minimum Humidity 26    
Precipitation  
Precipitation 0.00 in - - ()
Sea Level Pressure  
Sea Level Pressure 30.17 in    
Wind  
Wind Speed 3 mph (WSW)    
Max Wind Speed 15 mph    
Max Gust Speed 21 mph    
Visibility 10 miles    
Events      
Averages and records for this station are not official NWS values.
T = Trace of Precipitation, MM = Missing Value Source: NWS Daily Summary

Daily Weather History Graph

Daily Weather History Graph

Search for Another Location

Airport or City:

Trip Planner

Search our weather history database for the weather conditions in past years. The results will help you decide how hot, cold, wet, or windy it might be!

Date:

Astronomy

May. 14, 2013 Rise Set
Actual Time 5:55 AM EDT 8:09 PM EDT
Civil Twilight 5:26 AM EDT 8:39 PM EDT
Nautical Twilight 4:49 AM EDT 9:16 PM EDT
Astronomical Twilight 4:10 AM EDT 9:55 PM EDT
Moon 9:33 AM EDT (5/14) 11:56 PM EDT (5/14)
Length of Visible Light 15h 13m
Length of Day
14h 14m
Waxing Crescent, 19% of the Moon is Illuminated
May 14
Waxing Crescent
May 18
First Quarter
May 25
Full
May 31
Last Quarter
Jun 8
New

Hourly Weather History & Observations

Time (EDT) Temp. Windchill Dew Point Humidity Pressure Visibility Wind Dir Wind Speed Gust Speed Precip Events Conditions
12:16 AM 37.4 °F - 32.0 °F 81% 30.18 in 10.0 mi Calm Calm - N/A   Clear
12:36 AM 37.4 °F - 32.0 °F 81% 30.19 in 10.0 mi Calm Calm - N/A   Clear
12:56 AM 37.4 °F - 32.0 °F 81% 30.19 in 10.0 mi Calm Calm - N/A   Clear
1:16 AM 37.4 °F - 32.0 °F 81% 30.19 in 10.0 mi Calm Calm - N/A   Clear
1:36 AM 37.4 °F - 32.0 °F 81% 30.19 in 10.0 mi Calm Calm - N/A   Clear
1:56 AM 35.6 °F 32.8 °F 32.0 °F 87% 30.19 in 10.0 mi West 3.5 mph - N/A   Clear
2:16 AM 37.4 °F - 32.0 °F 81% 30.19 in 10.0 mi Calm Calm - N/A   Clear
2:36 AM 35.6 °F - 32.0 °F 87% 30.19 in 10.0 mi Calm Calm - N/A   Clear
2:56 AM 35.6 °F - 32.0 °F 87% 30.19 in 10.0 mi Calm Calm - N/A   Clear
3:16 AM 35.6 °F - 32.0 °F 87% 30.19 in 10.0 mi Calm Calm - N/A   Clear
3:36 AM 35.6 °F - 32.0 °F 87% 30.19 in 10.0 mi Calm Calm - N/A   Clear
3:56 AM 35.6 °F - 32.0 °F 87% 30.19 in 10.0 mi Calm Calm - N/A   Clear
4:16 AM 33.8 °F - 32.0 °F 93% 30.19 in 10.0 mi Calm Calm - N/A   Clear
4:37 AM 35.6 °F - 32.0 °F 87% 30.19 in 10.0 mi Calm Calm - N/A   Clear
4:57 AM 33.8 °F - 32.0 °F 93% 30.20 in 10.0 mi Calm Calm - N/A   Clear
5:17 AM 35.6 °F - 32.0 °F 87% 30.20 in 10.0 mi Calm Calm - N/A   Clear
5:37 AM 35.6 °F 32.8 °F 32.0 °F 87% 30.21 in 10.0 mi West 3.5 mph - N/A   Clear
5:57 AM 35.6 °F - 32.0 °F 87% 30.21 in 10.0 mi Calm Calm - N/A   Clear
6:17 AM 33.8 °F - 32.0 °F 93% 30.21 in 10.0 mi Calm Calm - N/A   Clear
6:37 AM 35.6 °F - 32.0 °F 87% 30.21 in 10.0 mi Calm Calm - N/A   Clear
6:57 AM 39.2 °F - 33.8 °F 81% 30.22 in 10.0 mi Calm Calm - N/A   Clear
7:17 AM 44.6 °F - 32.0 °F 61% 30.22 in 10.0 mi Calm Calm - N/A   Clear
7:37 AM 44.6 °F - 32.0 °F 61% 30.22 in 10.0 mi Calm Calm - N/A   Clear
7:57 AM 46.4 °F 45.2 °F 32.0 °F 57% 30.22 in 10.0 mi NW 3.5 mph - N/A   Clear
8:17 AM 48.2 °F - 32.0 °F 54% 30.22 in 10.0 mi NW 3.5 mph - N/A   Clear
8:37 AM 48.2 °F - 28.4 °F 46% 30.22 in 10.0 mi NNW 4.6 mph - N/A   Clear
8:57 AM 50.0 °F - 28.4 °F 43% 30.22 in 10.0 mi Calm Calm - N/A   Clear
9:17 AM 50.0 °F - 28.4 °F 43% 30.22 in 10.0 mi NNE 4.6 mph - N/A   Clear
9:37 AM 50.0 °F - 28.4 °F 43% 30.22 in 10.0 mi Calm Calm - N/A   Clear
9:57 AM 51.8 °F - 28.4 °F 41% 30.22 in 10.0 mi WNW 4.6 mph - N/A   Clear
10:17 AM 51.8 °F - 28.4 °F 41% 30.22 in 10.0 mi West 5.8 mph - N/A   Clear
10:37 AM 53.6 °F - 28.4 °F 38% 30.23 in 10.0 mi West 5.8 mph - N/A   Clear
10:57 AM 53.6 °F - 26.6 °F 35% 30.22 in 10.0 mi West 5.8 mph - N/A   Clear
11:17 AM 53.6 °F - 28.4 °F 38% 30.22 in 10.0 mi WNW 6.9 mph - N/A   Clear
11:37 AM 55.4 °F - 28.4 °F 36% 30.21 in 10.0 mi WSW 11.5 mph - N/A   Clear
11:57 AM 55.4 °F - 28.4 °F 36% 30.21 in 10.0 mi West 9.2 mph - N/A   Clear
12:17 PM 55.4 °F - 28.4 °F 36% 30.20 in 10.0 mi West 8.1 mph 16.1 mph N/A   Clear
12:37 PM 55.4 °F - 28.4 °F 36% 30.19 in 10.0 mi West 11.5 mph 17.3 mph N/A   Clear
12:58 PM 57.2 °F - 30.2 °F 36% 30.19 in 10.0 mi SW 10.4 mph 17.3 mph N/A   Clear
1:18 PM 57.2 °F - 30.2 °F 36% 30.19 in 10.0 mi WNW 10.4 mph - N/A   Clear
1:38 PM 59.0 °F - 28.4 °F 31% 30.18 in 10.0 mi West 10.4 mph 18.4 mph N/A   Clear
1:58 PM 59.0 °F - 28.4 °F 31% 30.17 in 10.0 mi WSW 9.2 mph 12.7 mph N/A   Clear
2:18 PM 60.8 °F - 28.4 °F 29% 30.16 in 10.0 mi West 8.1 mph 20.7 mph N/A   Clear
2:38 PM 60.8 °F - 28.4 °F 29% 30.14 in 10.0 mi SW 8.1 mph - N/A   Clear
2:58 PM 60.8 °F - 28.4 °F 29% 30.14 in 10.0 mi West 11.5 mph 16.1 mph N/A   Clear
3:18 PM 60.8 °F - 28.4 °F 29% 30.14 in 10.0 mi West 8.1 mph - N/A   Clear
3:38 PM 62.6 °F - 26.6 °F 26% 30.13 in 10.0 mi WNW 10.4 mph 20.7 mph N/A   Scattered Clouds
3:58 PM 62.6 °F - 28.4 °F 27% 30.13 in 10.0 mi West 15.0 mph - N/A   Scattered Clouds
4:18 PM 60.8 °F - 26.6 °F 27% 30.13 in 10.0 mi West 6.9 mph - N/A   Scattered Clouds
4:38 PM 62.6 °F - 28.4 °F 27% 30.12 in 10.0 mi WSW 9.2 mph 17.3 mph N/A   Scattered Clouds
4:58 PM 64.4 °F - 28.4 °F 26% 30.11 in 10.0 mi West 10.4 mph - N/A   Scattered Clouds
5:18 PM 62.6 °F - 28.4 °F 27% 30.11 in 10.0 mi WNW 6.9 mph - N/A   Scattered Clouds
5:38 PM 62.6 °F - 28.4 °F 27% 30.11 in 10.0 mi West 5.8 mph - N/A   Mostly Cloudy
5:58 PM 62.6 °F - 28.4 °F 27% 30.10 in 10.0 mi West 5.8 mph - N/A   Scattered Clouds
6:18 PM 62.6 °F - 30.2 °F 30% 30.11 in 10.0 mi SW 4.6 mph - N/A   Mostly Cloudy
6:38 PM 62.6 °F - 30.2 °F 30% 30.10 in 10.0 mi Calm Calm - N/A   Overcast
6:58 PM 60.8 °F - 30.2 °F 31% 30.09 in 10.0 mi Calm Calm - N/A   Scattered Clouds
7:18 PM 59.0 °F - 37.4 °F 45% 30.10 in 10.0 mi Calm Calm - N/A   Scattered Clouds
7:38 PM 57.2 °F - 37.4 °F 48% 30.10 in 10.0 mi Calm Calm - N/A   Scattered Clouds
7:58 PM 57.2 °F - 39.2 °F 51% 30.09 in 10.0 mi Calm Calm - N/A   Mostly Cloudy
8:18 PM 57.2 °F - 37.4 °F 48% 30.09 in 10.0 mi SSE 5.8 mph - N/A   Overcast
8:38 PM 57.2 °F - 37.4 °F 48% 30.10 in 10.0 mi SSE 3.5 mph - N/A   Mostly Cloudy
8:58 PM 55.4 °F - 39.2 °F 54% 30.09 in 10.0 mi SSE 5.8 mph - N/A   Overcast
9:18 PM 55.4 °F - 41.0 °F 58% 30.10 in 10.0 mi SE 3.5 mph - N/A   Overcast
9:39 PM 55.4 °F - 41.0 °F 58% 30.10 in 10.0 mi SE 4.6 mph - N/A   Overcast
9:59 PM 55.4 °F - 41.0 °F 58% 30.11 in 10.0 mi SE 3.5 mph - N/A   Overcast
10:59 PM 55.4 °F - 42.8 °F 63% 30.10 in 10.0 mi ESE 3.5 mph - N/A   Mostly Cloudy
11:19 PM 55.4 °F - 42.8 °F 63% 30.10 in 10.0 mi ESE 4.6 mph - N/A   Mostly Cloudy
11:39 PM 55.4 °F - 44.6 °F 67% 30.09 in 10.0 mi SE 4.6 mph - N/A   Mostly Cloudy
11:59 PM 55.4 °F - 44.6 °F 67% 30.09 in 10.0 mi SE 3.5 mph - N/A   Mostly Cloudy